Location: Carriage Mobile Home Estates
(33.8045°N, 117.8545°W)
Time: 12:24:28
(UTC+00:00)

Daily predictions for brighter satellites

Satellite Brightness Start Highest point End
(mag) Time Altitude Azimuth Time Altitude Azimuth Time Altitude Azimuth
USA 267 4.4 12:00:34 10° ESE 12:06:44 47° NE 12:12:56 10° NNW
CZ-2C R/B 4.2 12:04:05 10° NNW 12:06:53 20° WNW 12:07:45 18° W
ARIANE 5 R/B 4.4 12:04:16 10° NNW 12:06:59 14° WNW 12:08:34 13° W
Cosmos 1400 Rocket 4.4 12:03:36 10° SSE 12:07:10 34° E 12:10:42 10° NNE
CZ-4B R/B 2.2 12:08:33 10° SSE 12:11:43 51° ENE 12:14:49 10° N
Cosmos 1745 Rocket 4.4 12:06:35 10° NNW 12:12:19 40° W 12:17:59 10° SSW
Cosmos 1455 3.1 12:09:50 10° S 12:13:34 51° E 12:17:19 10° NNE
Landsat 5 4.0 12:11:06 10° SSW 12:14:38 33° W 12:18:18 10° NNW
Cosmos 1300 4.1 12:15:09 18° WSW 12:16:26 21° WNW 12:19:22 10° NNW
Lacrosse 5 rocket 2.1 12:12:36 10° SSW 12:16:55 56° SE 12:21:26 10° NE
Meteor 2-1 Rocket 4.4 12:17:19 10° S 12:23:09 88° E 12:29:05 10° N
SeaSat 1 2.9 12:18:45 10° N 12:23:26 45° WNW 12:27:59 11° SW
ADEOS Rocket 4.0 12:17:00 10° SSE 12:24:33 70° ENE 12:32:17 10° N
ERS-2 3.1 12:24:36 10° SSW 12:27:40 25° W 12:30:44 10° NW
Cosmos 2058 3.2 12:24:44 10° N 12:28:55 75° E 12:33:05 10° S
DELTA 2 R/B (1) 4.5 12:28:05 10° SW 12:33:19 41° SSE 12:38:33 10° ENE
TSX-5 3.4 12:39:06 10° SW 12:42:13 51° WNW 12:45:19 10° NNE
SAR-Lupe-4 3.8 12:40:44 10° S 12:44:10 47° W 12:47:38 10° NNW
COSMO-SKYMED 1 4.4 12:40:33 10° SE 12:44:32 37° ENE 12:48:31 10° N
METEOR-M 4.3 12:39:37 10° NNE 12:45:00 83° ESE 12:50:20 10° S
Cosmos 1689 Rocket 2.6 12:42:36 10° SSE 12:45:27 62° ENE 12:48:20 10° N
CZ-2C R/B 3.5 12:46:01 10° NNW 12:49:40 24° WNW 12:53:23 10° WSW
ATLAS 3B CENTAUR R/B 4.2 12:51:20 10° W 12:57:25 18° SW 13:01:19 10° S
